When you browse on this site, cookies collect data to enhance your experience and personalize the content and advertising you see.
Visit our Privacy Policy to learn more. By continuing to use the site, you agree to this use of cookies and data.
EN

Hourly Weather Mansa Konko

Today, 5 July, Sunday

Time Temperature Precipitation Wind Pressure Humidity
00:00 +29°C° 0 mm 3 mps 757 mmHg 75%
01:00 +29°C° 0 mm 3 mps 757 mmHg 77%
02:00 +28°C° 0 mm 2 mps 757 mmHg 79%
03:00 +28°C° 0 mm 3 mps 757 mmHg 79%
04:00 +28°C° 0 mm 3 mps 756 mmHg 79%
05:00 +28°C° 0 mm 3 mps 756 mmHg 80%
06:00 +28°C° 0 mm 3 mps 756 mmHg 77%
07:00 +29°C° 0 mm 3 mps 757 mmHg 73%
08:00 +30°C° 0 mm 3 mps 757 mmHg 70%
09:00 +33°C° 0 mm 3 mps 757 mmHg 61%
10:00 +35°C° 0 mm 3 mps 757 mmHg 53%
11:00 +37°C° 0 mm 3 mps 757 mmHg 45%
12:00 +38°C° 0 mm 3 mps 756 mmHg 42%
13:00 +40°C° 0 mm 4 mps 756 mmHg 38%
14:00 +41°C° 0 mm 4 mps 755 mmHg 35%
15:00 +40°C° 0 mm 4 mps 755 mmHg 38%
16:00 +39°C° 0 mm 5 mps 755 mmHg 41%
17:00 +38°C° 0 mm 6 mps 755 mmHg 44%
18:00 +35°C° 0 mm 6 mps 755 mmHg 51%
19:00 +34°C° 0 mm 5 mps 756 mmHg 58%
20:00 +32°C° 0 mm 5 mps 757 mmHg 65%
21:00 +30°C° 0 mm 5 mps 757 mmHg 67%
22:00 +30°C° 0 mm 4 mps 758 mmHg 69%
23:00 +29°C° 0 mm 3 mps 758 mmHg 71%

Tomorrow, 6 July, Monday

Time Temperature Precipitation Wind Pressure Humidity
00:00 +29°C° 0 mm 3 mps 758 mmHg 72%
01:00 +29°C° 0 mm 3 mps 757 mmHg 73%
02:00 +29°C° 0 mm 3 mps 757 mmHg 74%
03:00 +28°C° 0 mm 2 mps 757 mmHg 75%
04:00 +28°C° 0 mm 2 mps 757 mmHg 77%
05:00 +28°C° 0 mm 2 mps 757 mmHg 78%
06:00 +29°C° 0 mm 2 mps 757 mmHg 75%
07:00 +29°C° 0 mm 2 mps 758 mmHg 71%
08:00 +30°C° 0 mm 2 mps 758 mmHg 68%
09:00 +32°C° 0 mm 2 mps 758 mmHg 62%
10:00 +34°C° 0 mm 3 mps 758 mmHg 57%
11:00 +36°C° 0 mm 3 mps 758 mmHg 51%
12:00 +37°C° 0 mm 3 mps 757 mmHg 48%
13:00 +38°C° 0 mm 3 mps 757 mmHg 45%
14:00 +40°C° 0 mm 4 mps 756 mmHg 42%
15:00 +38°C° 0.4 mm 4 mps 756 mmHg 45%
16:00 +37°C° 0.4 mm 4 mps 755 mmHg 49%
17:00 +36°C° 0.4 mm 4 mps 755 mmHg 52%
18:00 +34°C° 3.6 mm 4 mps 756 mmHg 61%
19:00 +32°C° 3.6 mm 4 mps 756 mmHg 70%
20:00 +29°C° 3.6 mm 4 mps 757 mmHg 79%
21:00 +29°C° 2.1 mm 3 mps 757 mmHg 79%
22:00 +29°C° 2.1 mm 2 mps 758 mmHg 80%
23:00 +29°C° 2.1 mm 1 mps 758 mmHg 80%

Day after tomorrow, 7 July, Tuesday

Time Temperature Precipitation Wind Pressure Humidity
00:00 +29°C° 0.5 mm 1 mps 758 mmHg 81%
01:00 +29°C° 0.5 mm 1 mps 758 mmHg 82%
02:00 +29°C° 0.5 mm 2 mps 757 mmHg 83%
03:00 +28°C° 1 mm 2 mps 757 mmHg 83%
04:00 +28°C° 1 mm 2 mps 758 mmHg 84%
05:00 +28°C° 1 mm 2 mps 758 mmHg 85%
06:00 +28°C° 1 mm 2 mps 758 mmHg 84%
07:00 +28°C° 1 mm 2 mps 758 mmHg 84%
08:00 +28°C° 1 mm 2 mps 759 mmHg 83%
09:00 +28°C° 1.5 mm 2 mps 758 mmHg 84%
10:00 +28°C° 1.5 mm 2 mps 758 mmHg 84%
11:00 +27°C° 1.5 mm 1 mps 758 mmHg 85%
12:00 +28°C° 0 mm 1 mps 757 mmHg 78%
13:00 +30°C° 0 mm 1 mps 757 mmHg 72%
14:00 +29°C° 0 mm 0 mps 756 mmHg 66%
15:00 +31°C° 0 mm 1 mps 756 mmHg 66%
16:00 +31°C° 0 mm 1 mps 756 mmHg 66%
17:00 +31°C° 0 mm 1 mps 756 mmHg 67%
18:00 +30°C° 0 mm 1 mps 757 mmHg 69%
19:00 +30°C° 0 mm 1 mps 757 mmHg 70%
20:00 +29°C° 0 mm 1 mps 758 mmHg 72%
21:00 +29°C° 0 mm 1 mps 758 mmHg 74%
22:00 +29°C° 0 mm 1 mps 758 mmHg 76%
23:00 +28°C° 0 mm 2 mps 759 mmHg 78%

8 July, Wednesday

Time Temperature Precipitation Wind Pressure Humidity
00:00 +28°C° 0 mm 2 mps 758 mmHg 78%
01:00 +28°C° 0 mm 2 mps 758 mmHg 78%
02:00 +28°C° 0 mm 2 mps 757 mmHg 78%
03:00 +28°C° 0 mm 2 mps 757 mmHg 79%
04:00 +27°C° 0 mm 2 mps 757 mmHg 81%
05:00 +27°C° 0 mm 3 mps 756 mmHg 82%
06:00 +28°C° 0 mm 2 mps 757 mmHg 78%
07:00 +29°C° 0 mm 2 mps 757 mmHg 75%
08:00 +30°C° 0 mm 2 mps 758 mmHg 71%
09:00 +31°C° 0 mm 2 mps 758 mmHg 65%
10:00 +34°C° 0 mm 2 mps 758 mmHg 59%
11:00 +35°C° 0 mm 2 mps 758 mmHg 53%
12:00 +36°C° 0 mm 2 mps 757 mmHg 49%
13:00 +37°C° 0 mm 2 mps 756 mmHg 45%
14:00 +39°C° 0 mm 3 mps 755 mmHg 41%
15:00 +39°C° 0 mm 3 mps 755 mmHg 41%
16:00 +39°C° 0 mm 3 mps 755 mmHg 40%
17:00 +40°C° 0 mm 4 mps 754 mmHg 40%
18:00 +37°C° 0 mm 4 mps 755 mmHg 46%
19:00 +35°C° 0 mm 5 mps 755 mmHg 53%
20:00 +33°C° 0 mm 5 mps 756 mmHg 59%
21:00 +32°C° 0 mm 5 mps 756 mmHg 60%
22:00 +32°C° 0 mm 4 mps 757 mmHg 61%
23:00 +30°C° 0 mm 4 mps 757 mmHg 62%

9 July, Thursday

Time Temperature Precipitation Wind Pressure Humidity
00:00 +30°C° 0 mm 4 mps 757 mmHg 65%
01:00 +29°C° 0 mm 4 mps 756 mmHg 67%
02:00 +29°C° 0 mm 4 mps 756 mmHg 70%
03:00 +28°C° 0 mm 4 mps 756 mmHg 72%
04:00 +28°C° 0 mm 4 mps 756 mmHg 75%
05:00 +28°C° 0 mm 3 mps 757 mmHg 78%
06:00 +28°C° 0 mm 4 mps 757 mmHg 75%
07:00 +29°C° 0 mm 4 mps 757 mmHg 73%
08:00 +30°C° 0 mm 5 mps 757 mmHg 70%
09:00 +33°C° 0 mm 5 mps 757 mmHg 62%
10:00 +34°C° 0 mm 5 mps 757 mmHg 55%
11:00 +36°C° 0 mm 5 mps 757 mmHg 47%
12:00 +37°C° 0 mm 5 mps 756 mmHg 45%
13:00 +39°C° 0 mm 5 mps 756 mmHg 42%
14:00 +39°C° 0 mm 6 mps 755 mmHg 40%
15:00 +38°C° 0 mm 6 mps 755 mmHg 42%
16:00 +36°C° 0 mm 6 mps 754 mmHg 44%
17:00 +36°C° 0 mm 6 mps 754 mmHg 46%
18:00 +34°C° 0 mm 5 mps 755 mmHg 53%
19:00 +33°C° 0 mm 5 mps 756 mmHg 59%
20:00 +30°C° 0 mm 4 mps 756 mmHg 66%
21:00 +29°C° 0 mm 4 mps 757 mmHg 69%
22:00 +29°C° 0 mm 4 mps 757 mmHg 73%
23:00 +28°C° 0 mm 3 mps 757 mmHg 77%

10 July, Friday

Time Temperature Precipitation Wind Pressure Humidity
00:00 +28°C° 0 mm 3 mps 757 mmHg 78%
01:00 +28°C° 0 mm 3 mps 756 mmHg 80%
02:00 +28°C° 0 mm 3 mps 756 mmHg 82%
03:00 +28°C° 0 mm 3 mps 756 mmHg 79%
04:00 +28°C° 0 mm 3 mps 756 mmHg 77%
05:00 +28°C° 0 mm 3 mps 757 mmHg 75%
06:00 +29°C° 0 mm 3 mps 757 mmHg 72%
07:00 +30°C° 0 mm 3 mps 757 mmHg 69%
08:00 +30°C° 0 mm 3 mps 757 mmHg 66%
09:00 +33°C° 0 mm 4 mps 757 mmHg 60%
10:00 +34°C° 0 mm 4 mps 757 mmHg 54%
11:00 +36°C° 0 mm 4 mps 756 mmHg 48%
12:00 +37°C° 0 mm 4 mps 756 mmHg 45%
13:00 +38°C° 0 mm 4 mps 755 mmHg 41%
14:00 +40°C° 0 mm 4 mps 755 mmHg 38%
15:00 +38°C° 0 mm 4 mps 755 mmHg 40%
16:00 +39°C° 0 mm 5 mps 755 mmHg 41%
17:00 +37°C° 0 mm 5 mps 755 mmHg 43%
18:00 +36°C° 0 mm 5 mps 755 mmHg 50%
19:00 +34°C° 0 mm 5 mps 756 mmHg 56%
20:00 +32°C° 0 mm 5 mps 757 mmHg 62%
21:00 +32°C° 0 mm 5 mps 757 mmHg 66%
22:00 +30°C° 0 mm 4 mps 757 mmHg 69%
23:00 +29°C° 0 mm 4 mps 758 mmHg 72%
Show more